| time (UTC) | temp F | wind direction | speed MPH | gust MPH | rain 1hr in | rain 24hr in | rain mn in | humidity % | barometer mb |
| 20260510141507 | 65 | 83 | 5.0 | 7.0 | 0.00 | 0.00 | 0.00 | 47 | 1013.6 |
| 20260510141008 | 66 | 45 | 4.0 | 4.0 | 0.00 | 0.00 | 0.00 | 44 | 1013.4 |
| 20260510140507 | 66 | 71 | 5.0 | 6.0 | 0.00 | 0.00 | 0.00 | 45 | 1013.6 |
| 20260510140008 | 66 | 54 | 4.0 | 5.0 | 0.00 | 0.00 | 0.00 | 42 | 1013.7 |
| 20260510135508 | 66 | 15 | 1.0 | 3.0 | 0.00 | 0.00 | 0.00 | 47 | 1013.6 |
| 20260510135008 | 65 | 120 | 1.0 | 2.0 | 0.00 | 0.00 | 0.00 | 44 | 1013.6 |
| 20260510134508 | 65 | 74 | 6.0 | 10.0 | 0.00 | 0.00 | 0.00 | 44 | 1013.9 |
| 20260510134007 | 66 | 100 | 7.0 | 8.0 | 0.00 | 0.00 | 0.00 | 45 | 1013.8 |
| 20260510133508 | 66 | 61 | 7.0 | 8.0 | 0.00 | 0.00 | 0.00 | 48 | 1013.9 |
| 20260510133008 | 65 | 144 | 1.0 | 3.0 | 0.00 | 0.00 | 0.00 | 47 | 1013.9 |
| 20260510132508 | 65 | 353 | 3.0 | 5.0 | 0.00 | 0.00 | 0.00 | 48 | 1014.0 |
| 20260510132007 | 66 | 46 | 6.0 | 7.0 | 0.00 | 0.00 | 0.00 | 48 | 1014.3 |
| 20260510131507 | 65 | 42 | 3.0 | 5.0 | 0.00 | 0.00 | 0.00 | 51 | 1014.2 |
| 20260510131008 | 66 | 52 | 2.0 | 3.0 | 0.00 | 0.00 | 0.00 | 49 | 1014.2 |
| 20260510130508 | 66 | 28 | 3.0 | 6.0 | 0.00 | 0.00 | 0.00 | 50 | 1014.4 |
| 20260510130007 | 66 | 68 | 8.0 | 8.0 | 0.00 | 0.00 | 0.00 | 49 | 1014.5 |
| 20260510125508 | 66 | 73 | 6.0 | 6.0 | 0.00 | 0.00 | 0.00 | 49 | 1014.5 |
| 20260510125007 | 65 | 132 | 5.0 | 7.0 | 0.00 | 0.00 | 0.00 | 48 | 1014.3 |
| 20260510124508 | 66 | 98 | 6.0 | 9.0 | 0.00 | 0.00 | 0.00 | 48 | 1014.7 |
| 20260510124007 | 66 | 154 | 4.0 | 4.0 | 0.00 | 0.00 | 0.00 | 48 | 1014.6 |
| 20260510123508 | 65 | 295 | 3.0 | 3.0 | 0.00 | 0.00 | 0.00 | 47 | 1014.5 |
| 20260510123008 | 65 | 50 | 5.0 | 5.0 | 0.00 | 0.00 | 0.00 | 47 | 1014.8 |
| 20260510122508 | 64 | 85 | 8.0 | 9.0 | 0.00 | 0.00 | 0.00 | 48 | 1014.7 |
| 20260510122007 | 65 | 25 | 6.0 | 8.0 | 0.00 | 0.00 | 0.00 | 45 | 1014.8 |
| 20260510121507 | 65 | 42 | 8.0 | 9.0 | 0.00 | 0.00 | 0.00 | 47 | 1015.0 |
| 20260510121007 | 65 | 27 | 3.0 | 6.0 | 0.00 | 0.00 | 0.00 | 48 | 1015.0 |
| 20260510120508 | 64 | 122 | 2.0 | 2.0 | 0.00 | 0.00 | 0.00 | 47 | 1014.9 |
| 20260510120008 | 64 | 86 | 6.0 | 10.0 | 0.00 | 0.00 | 0.00 | 47 | 1015.0 |
| 20260510115507 | 64 | 140 | 4.0 | 5.0 | 0.00 | 0.00 | 0.00 | 49 | 1015.1 |
| 20260510115008 | 64 | 85 | 6.0 | 6.0 | 0.00 | 0.00 | 0.00 | 46 | 1015.3 |
| 20260510114509 | 63 | 64 | 6.0 | 8.0 | 0.00 | 0.00 | 0.00 | 44 | 1015.4 |
| 20260510114008 | 64 | 55 | 4.0 | 4.0 | 0.00 | 0.00 | 0.00 | 48 | 1015.4 |
| 20260510113508 | 64 | 68 | 4.0 | 7.0 | 0.00 | 0.00 | 0.00 | 51 | 1015.6 |
| 20260510113009 | 64 | 67 | 2.0 | 3.0 | 0.00 | 0.00 | 0.00 | 50 | 1015.4 |
| 20260510112508 | 65 | 265 | 4.0 | 4.0 | 0.00 | 0.00 | 0.00 | 50 | 1015.5 |
| 20260510112007 | 64 | 229 | 1.0 | 2.0 | 0.00 | 0.00 | 0.00 | 49 | 1015.7 |
| 20260510111508 | 63 | 130 | 4.0 | 4.0 | 0.00 | 0.00 | 0.00 | 50 | 1015.8 |
| 20260510111008 | 63 | 96 | 4.0 | 6.0 | 0.00 | 0.00 | 0.00 | 49 | 1015.6 |
| 20260510110508 | 63 | 43 | 8.0 | 10.0 | 0.00 | 0.00 | 0.00 | 50 | 1015.7 |
| 20260510110008 | 63 | 54 | 2.0 | 2.0 | 0.00 | 0.00 | 0.00 | 52 | 1015.8 |
| 20260510105508 | 64 | 41 | 5.0 | 6.0 | 0.00 | 0.00 | 0.00 | 54 | 1015.8 |
| 20260510105008 | 62 | 139 | 5.0 | 7.0 | 0.00 | 0.00 | 0.00 | 55 | 1015.7 |
| 20260510104508 | 62 | 76 | 11.0 | 11.0 | 0.00 | 0.00 | 0.00 | 53 | 1015.9 |
| 20260510104007 | 62 | 96 | 6.0 | 11.0 | 0.00 | 0.00 | 0.00 | 56 | 1016.0 |
| 20260510103507 | 63 | 136 | 4.0 | 4.0 | 0.00 | 0.00 | 0.00 | 55 | 1015.8 |
| 20260510103007 | 61 | 164 | 7.0 | 10.0 | 0.00 | 0.00 | 0.00 | 55 | 1015.6 |
| 20260510102007 | 61 | 93 | 8.0 | 8.0 | 0.00 | 0.00 | 0.00 | 58 | 1015.9 |
| 20260510101508 | 60 | 67 | 9.0 | 12.0 | 0.00 | 0.00 | 0.00 | 58 | 1015.9 |
| 20260510101006 | 62 | 77 | 8.0 | 9.0 | 0.00 | 0.00 | 0.00 | 56 | 1016.2 |
| 20260510100507 | 61 | 100 | 12.0 | 12.0 | 0.00 | 0.00 | 0.00 | 59 | 1016.3 |
| 20260510100008 | 61 | 118 | 3.0 | 4.0 | 0.00 | 0.00 | 0.00 | 61 | 1016.5 |
| 20260510095507 | 61 | 145 | 6.0 | 10.0 | 0.00 | 0.00 | 0.00 | 58 | 1016.3 |
| 20260510095007 | 60 | 94 | 9.0 | 10.0 | 0.00 | 0.00 | 0.00 | 62 | 1016.3 |
| 20260510094508 | 60 | 119 | 3.0 | 6.0 | 0.00 | 0.00 | 0.00 | 59 | 1016.2 |
| 20260510094008 | 61 | 134 | 12.0 | 13.0 | 0.00 | 0.00 | 0.00 | 58 | 1016.3 |
| 20260510093508 | 59 | 153 | 7.0 | 8.0 | 0.00 | 0.00 | 0.00 | 61 | 1016.3 |
| 20260510093007 | 59 | 102 | 10.0 | 11.0 | 0.00 | 0.00 | 0.00 | 59 | 1016.4 |
| 20260510092508 | 60 | 89 | 10.0 | 10.0 | 0.00 | 0.00 | 0.00 | 58 | 1016.4 |
| 20260510092007 | 61 | 176 | 3.0 | 4.0 | 0.00 | 0.00 | 0.00 | 59 | 1016.6 |
| 20260510091508 | 61 | 162 | 5.0 | 6.0 | 0.00 | 0.00 | 0.00 | 62 | 1016.5 |
| 20260510091006 | 59 | 87 | 3.0 | 4.0 | 0.00 | 0.00 | 0.00 | 61 | 1016.7 |
| 20260510090507 | 59 | 98 | 8.0 | 8.0 | 0.00 | 0.00 | 0.00 | 60 | 1016.8 |
| 20260510085507 | 59 | 70 | 4.0 | 4.0 | 0.00 | 0.00 | 0.00 | 63 | 1016.7 |
| 20260510085008 | 58 | 132 | 2.0 | 3.0 | 0.00 | 0.00 | 0.00 | 62 | 1016.9 |
| 20260510084508 | 57 | 91 | 6.0 | 6.0 | 0.00 | 0.00 | 0.00 | 63 | 1017.0 |
| 20260510084007 | 57 | 81 | 10.0 | 10.0 | 0.00 | 0.00 | 0.00 | 64 | 1016.9 |
| 20260510083508 | 58 | 145 | 3.0 | 4.0 | 0.00 | 0.00 | 0.00 | 65 | 1017.1 |
| 20260510083008 | 57 | 56 | 4.0 | 7.0 | 0.00 | 0.00 | 0.00 | 65 | 1016.9 |
| 20260510082508 | 56 | 75 | 7.0 | 9.0 | 0.00 | 0.00 | 0.00 | 66 | 1017.1 |
| 20260510082007 | 57 | 84 | 6.0 | 8.0 | 0.00 | 0.00 | 0.00 | 66 | 1017.1 |
| 20260510081508 | 56 | 40 | 3.0 | 3.0 | 0.00 | 0.00 | 0.00 | 68 | 1017.3 |
| 20260510081007 | 56 | 95 | 5.0 | 6.0 | 0.00 | 0.00 | 0.00 | 68 | 1017.2 |
| 20260510080508 | 55 | 69 | 5.0 | 7.0 | 0.00 | 0.00 | 0.00 | 69 | 1017.1 |
| 20260510080009 | 55 | 101 | 5.0 | 6.0 | 0.00 | 0.00 | 0.00 | 68 | 1017.3 |
| 20260510075508 | 55 | 109 | 1.0 | 2.0 | 0.00 | 0.00 | 0.00 | 67 | 1017.4 |
| 20260510075007 | 56 | 108 | 4.0 | 4.0 | 0.00 | 0.00 | 0.00 | 69 | 1017.1 |
| 20260510074507 | 54 | 84 | 6.0 | 7.0 | 0.00 | 0.00 | 0.00 | 69 | 1017.1 |
| 20260510074008 | 54 | 58 | 4.0 | 5.0 | 0.00 | 0.00 | 0.00 | 69 | 1017.2 |
| 20260510073508 | 54 | 61 | 5.0 | 6.0 | 0.00 | 0.00 | 0.00 | 69 | 1017.3 |
| 20260510073007 | 55 | 30 | 5.0 | 5.0 | 0.00 | 0.00 | 0.00 | 68 | 1017.2 |
| 20260510072508 | 54 | 89 | 6.0 | 7.0 | 0.00 | 0.00 | 0.00 | 69 | 1017.4 |
| 20260510072007 | 53 | 72 | 8.0 | 8.0 | 0.00 | 0.00 | 0.00 | 69 | 1017.3 |
| 20260510071509 | 53 | 76 | 2.0 | 4.0 | 0.00 | 0.00 | 0.00 | 70 | 1017.4 |
| 20260510071007 | 54 | 79 | 6.0 | 7.0 | 0.00 | 0.00 | 0.00 | 69 | 1017.5 |
| 20260510070507 | 53 | 130 | 5.0 | 5.0 | 0.00 | 0.00 | 0.00 | 72 | 1017.3 |
| 20260510070008 | 53 | 117 | 4.0 | 6.0 | 0.00 | 0.00 | 0.00 | 71 | 1017.5 |
| 20260510065508 | 52 | 171 | 4.0 | 5.0 | 0.00 | 0.00 | 0.00 | 70 | 1017.6 |
| 20260510065007 | 52 | 180 | 5.0 | 5.0 | 0.00 | 0.00 | 0.00 | 70 | 1017.7 |
| 20260510064507 | 52 | 178 | 4.0 | 6.0 | 0.00 | 0.00 | 0.00 | 70 | 1017.8 |
| 20260510064007 | 51 | 178 | 2.0 | 5.0 | 0.00 | 0.00 | 0.00 | 73 | 1017.5 |
| 20260510063508 | 51 | 157 | 4.0 | 5.0 | 0.00 | 0.00 | 0.00 | 73 | 1017.7 |
| 20260510063008 | 50 | 169 | 4.0 | 7.0 | 0.00 | 0.00 | 0.00 | 75 | 1017.8 |
| 20260510062508 | 52 | 160 | 5.0 | 6.0 | 0.00 | 0.00 | 0.00 | 75 | 1017.8 |
| 20260510062007 | 51 | 147 | 5.0 | 6.0 | 0.00 | 0.00 | 0.00 | 74 | 1018.0 |
| 20260510061006 | 50 | 156 | 3.0 | 4.0 | 0.00 | 0.00 | 0.00 | 77 | 1017.8 |
| 20260510060508 | 50 | 138 | 4.0 | 4.0 | 0.00 | 0.00 | 0.00 | 75 | 1017.7 |
| 20260510060008 | 51 | 157 | 1.0 | 3.0 | 0.00 | 0.00 | 0.00 | 76 | 1017.9 |
| 20260510055508 | 50 | 153 | 2.0 | 2.0 | 0.00 | 0.00 | 0.00 | 78 | 1017.9 |
| 20260510055007 | 50 | 153 | 2.0 | 3.0 | 0.00 | 0.00 | 0.00 | 79 | 1017.9 |
| 20260510054508 | 49 | 145 | 2.0 | 4.0 | 0.00 | 0.00 | 0.00 | 79 | 1018.3 |
| 20260510054007 | 48 | 156 | 2.0 | 4.0 | 0.00 | 0.00 | 0.00 | 81 | 1018.0 |
| 20260510053508 | 48 | 175 | 5.0 | 5.0 | 0.00 | 0.00 | 0.00 | 81 | 1018.1 |
| 20260510053007 | 48 | 167 | 2.0 | 3.0 | 0.00 | 0.00 | 0.00 | 81 | 1018.2 |
| 20260510052508 | 48 | 213 | 1.0 | 1.0 | 0.00 | 0.00 | 0.00 | 82 | 1018.2 |
| 20260510051508 | 46 | 186 | 3.0 | 4.0 | 0.00 | 0.00 | 0.00 | 85 | 1018.1 |
| 20260510050508 | 45 | 167 | 9.0 | 10.0 | 0.00 | 0.00 | 0.00 | 85 | 1018.0 |
| 20260510050009 | 45 | 165 | 7.0 | 7.0 | 0.00 | 0.00 | 0.00 | 85 | 1018.1 |
| 20260510045507 | 44 | 168 | 6.0 | 6.0 | 0.00 | 0.00 | 0.00 | 87 | 1018.2 |
| 20260510045008 | 44 | 166 | 8.0 | 9.0 | 0.00 | 0.00 | 0.00 | 87 | 1018.2 |
| 20260510044507 | 44 | 174 | 8.0 | 9.0 | 0.00 | 0.00 | 0.00 | 87 | 1018.4 |
| 20260510044008 | 44 | 174 | 7.0 | 8.0 | 0.00 | 0.00 | 0.00 | 86 | 1018.2 |
| 20260510043507 | 44 | 169 | 8.0 | 8.0 | 0.00 | 0.00 | 0.00 | 85 | 1018.3 |
| 20260510043007 | 44 | 176 | 7.0 | 9.0 | 0.00 | 0.00 | 0.00 | 86 | 1018.5 |
| 20260510042507 | 44 | 162 | 7.0 | 8.0 | 0.00 | 0.00 | 0.00 | 86 | 1018.3 |
| 20260510042007 | 45 | 161 | 9.0 | 9.0 | 0.00 | 0.00 | 0.00 | 85 | 1018.3 |
| 20260510041507 | 46 | 162 | 9.0 | 9.0 | 0.00 | 0.00 | 0.00 | 83 | 1018.2 |
| 20260510041007 | 44 | 171 | 7.0 | 8.0 | 0.00 | 0.00 | 0.00 | 86 | 1018.4 |
| 20260510040508 | 45 | 180 | 7.0 | 7.0 | 0.00 | 0.00 | 0.00 | 85 | 1018.4 |
| 20260510040007 | 46 | 177 | 8.0 | 9.0 | 0.00 | 0.00 | 0.00 | 83 | 1018.2 |
| 20260510035507 | 46 | 171 | 7.0 | 8.0 | 0.00 | 0.00 | 0.00 | 82 | 1018.4 |
| 20260510035008 | 46 | 176 | 6.0 | 6.0 | 0.00 | 0.00 | 0.00 | 83 | 1018.3 |
| 20260510034508 | 46 | 198 | 6.0 | 6.0 | 0.00 | 0.00 | 0.00 | 82 | 1018.3 |
| 20260510034007 | 47 | 193 | 5.0 | 6.0 | 0.00 | 0.00 | 0.00 | 80 | 1018.1 |
| 20260510033508 | 47 | 170 | 7.0 | 7.0 | 0.00 | 0.00 | 0.00 | 80 | 1018.1 |
| 20260510033007 | 46 | 171 | 7.0 | 7.0 | 0.00 | 0.00 | 0.00 | 81 | 1018.1 |
| 20260510032508 | 46 | 165 | 5.0 | 6.0 | 0.00 | 0.00 | 0.00 | 82 | 1018.0 |
| 20260510032007 | 46 | 171 | 6.0 | 6.0 | 0.00 | 0.00 | 0.00 | 82 | 1018.0 |
| 20260510031507 | 46 | 150 | 5.0 | 5.0 | 0.00 | 0.00 | 0.00 | 81 | 1017.8 |
| 20260510031009 | 46 | 147 | 5.0 | 5.0 | 0.00 | 0.00 | 0.00 | 82 | 1017.9 |
| 20260510030507 | 46 | 146 | 5.0 | 5.0 | 0.00 | 0.00 | 0.00 | 82 | 1018.0 |
| 20260510030008 | 46 | 162 | 5.0 | 5.0 | 0.00 | 0.00 | 0.00 | 82 | 1018.0 |
| 20260510025508 | 46 | 159 | 5.0 | 5.0 | 0.00 | 0.00 | 0.00 | 81 | 1017.9 |
| 20260510025008 | 46 | 159 | 5.0 | 5.0 | 0.00 | 0.00 | 0.00 | 81 | 1018.0 |
| 20260510024507 | 47 | 164 | 4.0 | 5.0 | 0.00 | 0.00 | 0.00 | 80 | 1017.8 |
| 20260510024007 | 47 | 151 | 4.0 | 4.0 | 0.00 | 0.00 | 0.00 | 80 | 1017.5 |
| 20260510023508 | 47 | 132 | 4.0 | 4.0 | 0.00 | 0.00 | 0.00 | 79 | 1017.8 |
| 20260510023008 | 47 | 91 | 5.0 | 5.0 | 0.00 | 0.00 | 0.00 | 79 | 1017.6 |
| 20260510022507 | 48 | 115 | 4.0 | 4.0 | 0.00 | 0.00 | 0.00 | 78 | 1017.6 |
| 20260510022007 | 47 | 117 | 2.0 | 2.0 | 0.00 | 0.00 | 0.00 | 79 | 1017.8 |
| 20260510021508 | 47 | 105 | 1.0 | 2.0 | 0.00 | 0.00 | 0.00 | 78 | 1017.9 |
| 20260510021006 | 48 | 127 | 1.0 | 1.0 | 0.00 | 0.00 | 0.00 | 78 | 1018.0 |
| 20260510020507 | 48 | 174 | 1.0 | 2.0 | 0.00 | 0.00 | 0.00 | 78 | 1018.2 |
| 20260510020007 | 48 | 144 | 3.0 | 3.0 | 0.00 | 0.00 | 0.00 | 77 | 1018.2 |
| 20260510015507 | 48 | 105 | 3.0 | 3.0 | 0.00 | 0.00 | 0.00 | 78 | 1018.0 |
| 20260510015007 | 48 | 105 | 4.0 | 4.0 | 0.00 | 0.00 | 0.00 | 77 | 1018.3 |
| 20260510014508 | 48 | 109 | 2.0 | 2.0 | 0.00 | 0.00 | 0.00 | 77 | 1018.4 |
| 20260510014007 | 48 | 109 | 1.0 | 1.0 | 0.00 | 0.00 | 0.00 | 77 | 1018.4 |
| 20260510013508 | 48 | 112 | 2.0 | 2.0 | 0.00 | 0.00 | 0.00 | 77 | 1018.4 |
| 20260510013008 | 48 | 104 | 4.0 | 4.0 | 0.00 | 0.00 | 0.00 | 76 | 1018.5 |
| 20260510012508 | 49 | 111 | 3.0 | 4.0 | 0.00 | 0.00 | 0.00 | 76 | 1018.5 |
| 20260510012007 | 49 | 107 | 4.0 | 4.0 | 0.00 | 0.00 | 0.00 | 76 | 1018.8 |
| 20260510011507 | 49 | 131 | 2.0 | 3.0 | 0.00 | 0.00 | 0.00 | 76 | 1018.7 |
| 20260510010508 | 48 | 140 | 1.0 | 1.0 | 0.00 | 0.00 | 0.00 | 77 | 1018.8 |
| 20260510010007 | 49 | 89 | 0.0 | 0.0 | 0.00 | 0.00 | 0.00 | 76 | 1018.9 |
| 20260510005507 | 49 | 346 | 0.0 | 0.0 | 0.00 | 0.00 | 0.00 | 75 | 1019.3 |
| 20260510005007 | 50 | 89 | 2.0 | 2.0 | 0.00 | 0.00 | 0.00 | 74 | 1019.3 |
| 20260510004508 | 49 | 94 | 2.0 | 2.0 | 0.00 | 0.00 | 0.00 | 75 | 1019.3 |
| 20260510004008 | 49 | 124 | 2.0 | 2.0 | 0.00 | 0.00 | 0.00 | 75 | 1019.2 |
| 20260510003508 | 49 | 168 | 2.0 | 2.0 | 0.00 | 0.00 | 0.00 | 76 | 1019.3 |
| 20260510003007 | 49 | 216 | 4.0 | 4.0 | 0.00 | 0.00 | 0.00 | 75 | 1019.4 |
| 20260510002507 | 49 | 230 | 2.0 | 3.0 | 0.00 | 0.00 | 0.00 | 74 | 1019.4 |
| 20260510002007 | 49 | 214 | 2.0 | 2.0 | 0.00 | 0.00 | 0.00 | 75 | 1019.5 |
| 20260510001508 | 49 | 231 | 2.0 | 2.0 | 0.00 | 0.00 | 0.00 | 76 | 1019.5 |
| 20260510001007 | 48 | 238 | 5.0 | 6.0 | 0.00 | 0.00 | 0.00 | 77 | 1019.6 |
| 20260510000507 | 49 | 245 | 7.0 | 8.0 | 0.00 | 0.00 | 0.00 | 76 | 1019.7 |
| 20260510000008 | 49 | 216 | 6.0 | 6.0 | 0.00 | 0.00 | 0.00 | 76 | 1019.6 |
| 20260509235507 | 48 | 218 | 7.0 | 8.0 | 0.00 | 0.00 | 0.00 | 77 | 1019.9 |
| 20260509235007 | 49 | 203 | 5.0 | 7.0 | 0.00 | 0.00 | 0.00 | 74 | 1019.9 |
| 20260509234507 | 49 | 178 | 8.0 | 8.0 | 0.00 | 0.00 | 0.00 | 74 | 1019.8 |
| 20260509234007 | 49 | 181 | 6.0 | 6.0 | 0.00 | 0.00 | 0.00 | 74 | 1019.8 |
| 20260509233508 | 50 | 218 | 4.0 | 4.0 | 0.00 | 0.00 | 0.00 | 73 | 1019.9 |
| 20260509233007 | 49 | 164 | 5.0 | 6.0 | 0.00 | 0.00 | 0.00 | 73 | 1019.7 |
| 20260509232508 | 49 | 161 | 8.0 | 8.0 | 0.00 | 0.00 | 0.00 | 74 | 1019.7 |
| 20260509232007 | 49 | 152 | 9.0 | 10.0 | 0.00 | 0.00 | 0.00 | 74 | 1019.7 |
| 20260509231508 | 49 | 140 | 11.0 | 12.0 | 0.00 | 0.00 | 0.00 | 73 | 1019.6 |
| 20260509231007 | 49 | 132 | 14.0 | 15.0 | 0.00 | 0.00 | 0.00 | 73 | 1019.7 |
| 20260509230507 | 50 | 148 | 12.0 | 17.0 | 0.00 | 0.00 | 0.00 | 72 | 1019.7 |
| 20260509230007 | 50 | 141 | 12.0 | 14.0 | 0.00 | 0.00 | 0.00 | 72 | 1020.0 |
| 20260509225508 | 50 | 141 | 12.0 | 13.0 | 0.00 | 0.00 | 0.00 | 72 | 1019.8 |
| 20260509225007 | 50 | 142 | 11.0 | 12.0 | 0.00 | 0.00 | 0.00 | 72 | 1019.8 |
| 20260509224508 | 50 | 136 | 14.0 | 15.0 | 0.00 | 0.00 | 0.00 | 72 | 1019.8 |
| 20260509224008 | 50 | 135 | 15.0 | 17.0 | 0.00 | 0.00 | 0.00 | 72 | 1019.8 |
| 20260509223508 | 50 | 123 | 13.0 | 15.0 | 0.00 | 0.00 | 0.00 | 71 | 1019.5 |
| 20260509223008 | 50 | 132 | 14.0 | 14.0 | 0.00 | 0.00 | 0.00 | 71 | 1019.7 |
| 20260509222507 | 50 | 125 | 12.0 | 15.0 | 0.00 | 0.00 | 0.00 | 72 | 1019.6 |
| 20260509222008 | 50 | 114 | 13.0 | 16.0 | 0.00 | 0.00 | 0.00 | 71 | 1019.4 |
| 20260509221507 | 50 | 113 | 14.0 | 16.0 | 0.00 | 0.00 | 0.00 | 71 | 1019.6 |
| 20260509221008 | 50 | 114 | 13.0 | 16.0 | 0.00 | 0.00 | 0.00 | 71 | 1019.6 |
| 20260509220507 | 50 | 112 | 13.0 | 14.0 | 0.00 | 0.00 | 0.00 | 71 | 1019.5 |
| 20260509215508 | 50 | 110 | 13.0 | 15.0 | 0.00 | 0.00 | 0.00 | 71 | 1019.6 |
| 20260509215007 | 50 | 110 | 13.0 | 15.0 | 0.00 | 0.00 | 0.00 | 71 | 1019.5 |
| 20260509214508 | 50 | 109 | 13.0 | 14.0 | 0.00 | 0.00 | 0.00 | 70 | 1019.8 |
| 20260509214007 | 50 | 105 | 13.0 | 14.0 | 0.00 | 0.00 | 0.00 | 70 | 1019.7 |
| 20260509213507 | 51 | 108 | 12.0 | 14.0 | 0.00 | 0.00 | 0.00 | 70 | 1019.8 |
| 20260509213008 | 51 | 107 | 12.0 | 13.0 | 0.00 | 0.00 | 0.00 | 70 | 1019.9 |
| 20260509212508 | 51 | 109 | 12.0 | 14.0 | 0.00 | 0.00 | 0.00 | 70 | 1020.1 |
| 20260509212007 | 51 | 112 | 12.0 | 12.0 | 0.00 | 0.00 | 0.00 | 70 | 1019.8 |
| 20260509211507 | 51 | 104 | 13.0 | 14.0 | 0.00 | 0.00 | 0.00 | 70 | 1019.7 |
| 20260509211008 | 51 | 107 | 13.0 | 14.0 | 0.00 | 0.00 | 0.00 | 70 | 1019.8 |
| 20260509210508 | 51 | 110 | 12.0 | 13.0 | 0.00 | 0.00 | 0.00 | 71 | 1020.0 |
| 20260509210008 | 51 | 108 | 12.0 | 14.0 | 0.00 | 0.00 | 0.00 | 71 | 1020.0 |
| 20260509205508 | 51 | 109 | 13.0 | 14.0 | 0.00 | 0.00 | 0.00 | 72 | 1019.8 |
| 20260509205008 | 51 | 107 | 12.0 | 13.0 | 0.00 | 0.00 | 0.00 | 72 | 1020.1 |
| 20260509204507 | 51 | 106 | 12.0 | 14.0 | 0.00 | 0.00 | 0.00 | 73 | 1020.1 |
| 20260509204007 | 51 | 106 | 12.0 | 13.0 | 0.00 | 0.00 | 0.00 | 73 | 1020.1 |
| 20260509203508 | 51 | 111 | 13.0 | 14.0 | 0.00 | 0.00 | 0.00 | 74 | 1020.0 |
| 20260509203008 | 51 | 107 | 14.0 | 15.0 | 0.00 | 0.00 | 0.00 | 74 | 1020.0 |
| 20260509202508 | 51 | 102 | 14.0 | 16.0 | 0.00 | 0.00 | 0.00 | 74 | 1020.1 |
| 20260509202007 | 51 | 93 | 16.0 | 17.0 | 0.00 | 0.00 | 0.00 | 73 | 1019.9 |
| 20260509201508 | 52 | 99 | 12.0 | 15.0 | 0.00 | 0.00 | 0.00 | 73 | 1020.0 |
| 20260509201008 | 52 | 103 | 15.0 | 16.0 | 0.00 | 0.00 | 0.00 | 73 | 1020.0 |
| 20260509200508 | 52 | 101 | 12.0 | 14.0 | 0.00 | 0.00 | 0.00 | 73 | 1020.2 |
| 20260509200007 | 52 | 99 | 13.0 | 14.0 | 0.00 | 0.00 | 0.00 | 74 | 1020.1 |
| 20260509195507 | 52 | 91 | 14.0 | 14.0 | 0.00 | 0.00 | 0.00 | 73 | 1020.3 |
| 20260509195008 | 52 | 93 | 13.0 | 14.0 | 0.00 | 0.00 | 0.00 | 73 | 1020.0 |
| 20260509194508 | 52 | 93 | 12.0 | 14.0 | 0.00 | 0.00 | 0.00 | 73 | 1019.8 |
| 20260509194007 | 52 | 88 | 14.0 | 14.0 | 0.00 | 0.00 | 0.00 | 72 | 1019.9 |
| 20260509193508 | 53 | 85 | 12.0 | 14.0 | 0.00 | 0.00 | 0.00 | 72 | 1019.9 |
| 20260509193008 | 53 | 88 | 13.0 | 14.0 | 0.00 | 0.00 | 0.00 | 73 | 1020.1 |
| 20260509192507 | 53 | 86 | 13.0 | 13.0 | 0.00 | 0.00 | 0.00 | 73 | 1020.0 |
| 20260509192007 | 53 | 87 | 12.0 | 13.0 | 0.00 | 0.00 | 0.00 | 73 | 1020.1 |
| 20260509191507 | 53 | 85 | 13.0 | 14.0 | 0.00 | 0.00 | 0.00 | 73 | 1019.7 |
| 20260509191008 | 53 | 85 | 12.0 | 13.0 | 0.00 | 0.00 | 0.00 | 73 | 1019.9 |
| 20260509190508 | 53 | 82 | 13.0 | 13.0 | 0.00 | 0.00 | 0.00 | 72 | 1019.9 |
| 20260509190008 | 53 | 77 | 12.0 | 14.0 | 0.00 | 0.00 | 0.00 | 72 | 1019.9 |
| 20260509185508 | 53 | 85 | 12.0 | 15.0 | 0.00 | 0.00 | 0.00 | 72 | 1020.0 |
| 20260509185008 | 53 | 80 | 11.0 | 13.0 | 0.00 | 0.00 | 0.00 | 72 | 1019.8 |
| 20260509184508 | 54 | 88 | 14.0 | 15.0 | 0.00 | 0.00 | 0.00 | 71 | 1019.9 |
| 20260509184007 | 54 | 84 | 13.0 | 14.0 | 0.00 | 0.00 | 0.00 | 71 | 1020.1 |
| 20260509183507 | 54 | 82 | 14.0 | 16.0 | 0.00 | 0.00 | 0.00 | 70 | 1020.1 |
| 20260509183008 | 54 | 76 | 13.0 | 15.0 | 0.00 | 0.00 | 0.00 | 70 | 1019.9 |
| 20260509182508 | 54 | 73 | 16.0 | 16.0 | 0.00 | 0.00 | 0.00 | 70 | 1020.1 |
| 20260509182007 | 54 | 63 | 8.0 | 12.0 | 0.00 | 0.00 | 0.00 | 70 | 1019.9 |
| 20260509181507 | 55 | 76 | 11.0 | 11.0 | 0.00 | 0.00 | 0.00 | 69 | 1019.7 |
| 20260509181006 | 55 | 64 | 13.0 | 17.0 | 0.00 | 0.00 | 0.00 | 69 | 1020.0 |
| 20260509180508 | 55 | 67 | 10.0 | 16.0 | 0.00 | 0.00 | 0.00 | 68 | 1019.9 |
| 20260509180007 | 55 | 70 | 11.0 | 14.0 | 0.00 | 0.00 | 0.00 | 67 | 1019.9 |
| 20260509175507 | 55 | 78 | 13.0 | 16.0 | 0.00 | 0.00 | 0.00 | 66 | 1020.0 |
| 20260509175009 | 56 | 65 | 12.0 | 16.0 | 0.00 | 0.00 | 0.00 | 65 | 1020.0 |
| 20260509174508 | 56 | 66 | 9.0 | 14.0 | 0.00 | 0.00 | 0.00 | 65 | 1019.9 |
| 20260509174008 | 56 | 67 | 11.0 | 13.0 | 0.00 | 0.00 | 0.00 | 65 | 1019.9 |
| 20260509173508 | 56 | 75 | 9.0 | 13.0 | 0.00 | 0.00 | 0.00 | 65 | 1019.7 |
| 20260509173008 | 56 | 70 | 12.0 | 13.0 | 0.00 | 0.00 | 0.00 | 65 | 1020.0 |
| 20260509172507 | 56 | 61 | 5.0 | 11.0 | 0.00 | 0.00 | 0.00 | 65 | 1020.0 |
| 20260509172007 | 56 | 63 | 10.0 | 16.0 | 0.00 | 0.00 | 0.00 | 64 | 1020.0 |
| 20260509171507 | 57 | 64 | 12.0 | 12.0 | 0.00 | 0.00 | 0.00 | 64 | 1020.0 |
| 20260509171008 | 57 | 63 | 13.0 | 16.0 | 0.00 | 0.00 | 0.00 | 64 | 1019.9 |
| 20260509170508 | 57 | 74 | 14.0 | 14.0 | 0.00 | 0.00 | 0.00 | 63 | 1019.9 |
| 20260509170008 | 57 | 80 | 11.0 | 16.0 | 0.00 | 0.00 | 0.00 | 63 | 1020.2 |
| 20260509165508 | 57 | 80 | 13.0 | 17.0 | 0.00 | 0.00 | 0.00 | 63 | 1019.9 |
| 20260509165007 | 57 | 77 | 13.0 | 14.0 | 0.00 | 0.00 | 0.00 | 62 | 1020.1 |
| 20260509164507 | 58 | 85 | 8.0 | 9.0 | 0.00 | 0.00 | 0.00 | 62 | 1020.1 |
| 20260509164008 | 58 | 60 | 10.0 | 11.0 | 0.00 | 0.00 | 0.00 | 61 | 1020.2 |
| 20260509163507 | 57 | 77 | 10.0 | 13.0 | 0.00 | 0.00 | 0.00 | 61 | 1020.2 |
| 20260509163008 | 58 | 53 | 7.0 | 8.0 | 0.00 | 0.00 | 0.00 | 62 | 1020.1 |
| 20260509162507 | 58 | 57 | 13.0 | 14.0 | 0.00 | 0.00 | 0.00 | 62 | 1020.2 |
| 20260509162007 | 58 | 59 | 8.0 | 10.0 | 0.00 | 0.00 | 0.00 | 61 | 1020.2 |
| 20260509161507 | 58 | 59 | 8.0 | 8.0 | 0.00 | 0.00 | 0.00 | 61 | 1020.4 |
| 20260509161007 | 58 | 65 | 10.0 | 14.0 | 0.00 | 0.00 | 0.00 | 61 | 1020.3 |
| 20260509160507 | 58 | 58 | 8.0 | 10.0 | 0.00 | 0.00 | 0.00 | 61 | 1020.3 |
| 20260509160008 | 58 | 53 | 10.0 | 12.0 | 0.00 | 0.00 | 0.00 | 60 | 1020.3 |
| 20260509155507 | 58 | 66 | 10.0 | 15.0 | 0.00 | 0.00 | 0.00 | 60 | 1020.5 |
| 20260509155008 | 58 | 42 | 14.0 | 15.0 | 0.00 | 0.00 | 0.00 | 61 | 1020.4 |
| 20260509154508 | 58 | 63 | 6.0 | 7.0 | 0.00 | 0.00 | 0.00 | 61 | 1020.4 |
| 20260509154008 | 58 | 91 | 5.0 | 8.0 | 0.00 | 0.00 | 0.00 | 61 | 1020.5 |
| 20260509153507 | 58 | 62 | 7.0 | 7.0 | 0.00 | 0.00 | 0.00 | 61 | 1020.5 |
| 20260509153008 | 58 | 85 | 8.0 | 9.0 | 0.00 | 0.00 | 0.00 | 61 | 1020.4 |
| 20260509152508 | 59 | 78 | 9.0 | 12.0 | 0.00 | 0.00 | 0.00 | 60 | 1020.3 |
| 20260509152008 | 59 | 74 | 8.0 | 13.0 | 0.00 | 0.00 | 0.00 | 60 | 1020.3 |
| 20260509151509 | 58 | 53 | 6.0 | 9.0 | 0.00 | 0.00 | 0.00 | 61 | 1020.3 |
| 20260509151007 | 58 | 28 | 2.0 | 6.0 | 0.00 | 0.00 | 0.00 | 62 | 1020.5 |
| 20260509150509 | 58 | 41 | 10.0 | 14.0 | 0.00 | 0.00 | 0.00 | 61 | 1020.5 |
| 20260509150008 | 58 | 55 | 6.0 | 8.0 | 0.00 | 0.00 | 0.00 | 61 | 1020.5 |
| 20260509145008 | 58 | 33 | 13.0 | 13.0 | 0.00 | 0.00 | 0.00 | 59 | 1020.4 |
| 20260509144508 | 59 | 78 | 11.0 | 14.0 | 0.00 | 0.00 | 0.00 | 59 | 1020.5 |
| 20260509144007 | 59 | 50 | 6.0 | 7.0 | 0.00 | 0.00 | 0.00 | 57 | 1020.5 |
| 20260509143508 | 60 | 38 | 5.0 | 8.0 | 0.00 | 0.00 | 0.00 | 58 | 1020.5 |
| 20260509143007 | 58 | 63 | 4.0 | 5.0 | 0.00 | 0.00 | 0.00 | 60 | 1020.6 |
| 20260509142507 | 58 | 41 | 5.0 | 6.0 | 0.00 | 0.00 | 0.00 | 60 | 1020.6 |
| 20260509142008 | 58 | 18 | 10.0 | 12.0 | 0.00 | 0.00 | 0.00 | 60 | 1020.6 |